Morrisville, VT

6:00 AM EST on December 10, 2019 (GMT -0500)
Morrisville Stowe State

Weather History for KMVL - August, 2019

Change the Weather History Date:

Thursday, August 1, 2019

  Actual Average Record
Temperature  
Mean Temperature 65 °F 67 °F  
Max Temperature 78 °F 79 °F 91 °F (2006)
Min Temperature 51 °F 55 °F 44 °F (1998)
Degree Days  
Heating Degree Days 0 1  
Month to date heating degree days 0 1  
Since 1 June heating degree days 153 154  
Since 1 July heating degree days 10 31  
Cooling Degree Days 0 3  
Month to date cooling degree days 0 3  
Year to date cooling degree days 182 171  
Since 1 June cooling degree days 181 163  
Growing Degree Days 16 (Base 50)    
Moisture  
Dew Point 57 °F    
Average Humidity 70    
Maximum Humidity 100    
Minimum Humidity 39    
Precipitation  
Precipitation 0.00 in 0.15 in 1.10 in (2016)
Month to date precipitation 0.00 0.15  
Year to date precipitation 23.44 19.88  
Sea Level Pressure  
Sea Level Pressure 30.12 in    
Wind  
Wind Speed 3 mph (NNW)    
Max Wind Speed 14 mph    
Max Gust Speed 18 mph    
Visibility 6 miles    
Events Fog    
T = Trace of Precipitation, MM = Missing Value Source: NWS Daily Summary

Daily Weather History Graph

Daily Weather History Graph

Search for Another Location

Airport or City:

Astronomy

Aug. 01, 2019 Rise Set
Actual Time 5:36 AM EDT 8:16 PM EDT
Civil Twilight 5:03 AM EDT 8:49 PM EDT
Nautical Twilight 4:21 AM EDT 9:31 PM EDT
Astronomical Twilight 3:32 AM EDT 10:19 PM EDT
Moon 5:57 AM EDT (8/1) 9:00 PM EDT (8/1)
Length of Visible Light 15h 45m
Length of Day
14h 39m
New Moon, 0% of the Moon is Illuminated
Aug 1
New Moon
Aug 7
First Quarter
Aug 15
Full
Aug 23
Last Quarter
Aug 30
New

Hourly Weather History & Observations

Time (EDT) Temp. Dew Point Humidity Pressure Visibility Wind Dir Wind Speed Gust Speed Precip Events Conditions
12:03 AM 63.0 °F 62.1 °F 97% 30.05 in 1.0 mi Calm Calm - N/A   Mist
12:10 AM 63.0 °F 62.1 °F 97% 30.05 in 0.8 mi Calm Calm - N/A   Mist
12:54 AM 64.0 °F 63.0 °F 96% 30.05 in 0.2 mi Calm Calm - N/A Fog Fog
1:54 AM 64.0 °F 63.0 °F 96% 30.06 in 0.8 mi Calm Calm - N/A   Mist
2:06 AM 64.0 °F 63.0 °F 96% 30.07 in 1.0 mi Calm Calm - N/A   Mist
2:20 AM 64.0 °F 63.0 °F 96% 30.07 in 0.8 mi Calm Calm - N/A   Mist
2:54 AM 64.0 °F 63.0 °F 96% 30.06 in 0.2 mi Calm Calm - N/A Fog Fog
3:54 AM 62.1 °F 62.1 °F 100% 30.08 in 0.5 mi Calm Calm - N/A Fog Fog
4:54 AM 62.1 °F 61.0 °F 96% 30.09 in 0.2 mi Calm Calm - N/A Fog Fog
5:54 AM 61.0 °F 60.1 °F 97% 30.10 in 0.2 mi Calm Calm - N/A Fog Fog
6:54 AM 61.0 °F 60.1 °F 97% 30.12 in 0.2 mi Calm Calm - N/A Fog Fog
7:36 AM 61.0 °F 60.1 °F 97% 30.13 in 1.0 mi Calm Calm - N/A   Overcast
7:42 AM 61.0 °F 60.1 °F 97% 30.13 in 2.0 mi Calm Calm - N/A   Overcast
7:54 AM 61.0 °F 60.1 °F 97% 30.13 in 1.5 mi Calm Calm - N/A   Overcast
8:10 AM 61.0 °F 61.0 °F 100% 30.13 in 3.0 mi Calm Calm - N/A   Overcast
8:54 AM 64.0 °F 60.1 °F 87% 30.14 in 10.0 mi Calm Calm - N/A   Scattered Clouds
9:54 AM 71.1 °F 60.1 °F 68% 30.14 in 10.0 mi NNE 6.9 mph - N/A   Clear
10:54 AM 73.9 °F 54.0 °F 50% 30.15 in 10.0 mi NNE 10.4 mph - N/A   Partly Cloudy
11:54 AM 75.0 °F 52.0 °F 44% 30.15 in 10.0 mi NNW 6.9 mph - N/A   Scattered Clouds
12:54 PM 75.9 °F 50.0 °F 40% 30.14 in 10.0 mi Variable 6.9 mph - N/A   Partly Cloudy
1:54 PM 77.0 °F 51.1 °F 40% 30.13 in 10.0 mi Variable 5.8 mph 16.1 mph N/A   Clear
2:54 PM 75.9 °F 50.0 °F 40% 30.14 in 10.0 mi Variable 6.9 mph - N/A   Clear
3:54 PM 77.0 °F 50.0 °F 39% 30.13 in 10.0 mi NW 4.6 mph - N/A   Clear
4:54 PM 77.0 °F 50.0 °F 39% 30.12 in 10.0 mi NNW 8.1 mph - N/A   Clear
5:54 PM 75.0 °F 50.0 °F 41% 30.13 in 10.0 mi WNW 5.8 mph - N/A   Clear
6:54 PM 73.9 °F 51.1 °F 45% 30.12 in 10.0 mi NW 5.8 mph - N/A   Clear
7:54 PM 64.9 °F 55.9 °F 73% 30.14 in 10.0 mi Calm Calm - N/A   Clear
8:54 PM 59.0 °F 55.0 °F 87% 30.14 in 10.0 mi Calm Calm - N/A   Clear
9:54 PM 55.9 °F 54.0 °F 93% 30.16 in 10.0 mi Calm Calm - N/A   Clear
10:54 PM 55.0 °F 53.1 °F 93% 30.16 in 10.0 mi WSW 3.5 mph - N/A   Clear
11:54 PM 53.1 °F 51.1 °F 93% 30.17 in 10.0 mi Calm Calm - N/A   Clear